Location: Saint-Palais-sur-Mer
(45.6429°N, 1.0859°W)
Time: 01:25:20
(UTC+02:00)

AAUSAT CUBESAT 2 - Visible Passes

Search period start: 19 April 2024 00:00
Search period end: 29 April 2024 00:00
Orbit: 518 x 528 km, 97.6° (Epoch: 18 April)

Date Brightness Start Highest point End Pass type
(mag) Time Alt. Az. Time Alt. Az. Time Alt. Az.
19 Apr ? 06:34:01 10° NNE 06:37:51 72° ESE 06:41:38 10° S visible
20 Apr ? 06:21:35 10° NNE 06:25:19 50° E 06:29:02 10° S visible
21 Apr ? 06:09:10 10° NNE 06:12:43 35° E 06:16:14 10° SSE visible
22 Apr ? 05:56:47 10° NE 06:00:01 26° E 06:03:15 10° SSE visible
23 Apr ? 05:44:29 10° NE 05:47:15 19° E 05:50:01 10° SE visible
24 Apr ? 05:32:23 10° ENE 05:34:25 14° E 05:36:25 10° ESE visible
27 Apr ? 06:26:33 10° NNE 06:30:20 57° E 06:34:05 10° S visible
28 Apr ? 06:13:42 10° NNE 06:17:20 40° E 06:20:55 10° S visible
